Tracking 30107 objects as of 19-Jan-2025
HD Live streaming from Space Station
objects crossing your sky now

COSMOS 1275 DEB

Track COSMOS 1275 DEB now!
10-day predictions


NORAD ID: 12674
Int'l Code: 1981-053AE
Perigee: 917.2 km
Apogee: 1,065.3 km
Inclination: 82.9 °
Period: 104.8 minutes
Semi major axis: 7362 km
RCS: 0.117 m2 (medium)
Launch date: June 4, 1981
Source: Commonwealth of Independent States (former USSR) (CIS)
Launch site: PLESETSK MISSILE AND SPACE COMPLEX (PKMTR)

Note: This is SATELLITE DEBRIS
Your satellite tracking list
Your tracking list is empty




NASA's NSSDC Master Catalog

Two Line Element Set (TLE):
1 12674U 81053AE  25018.53690343  .00001181  00000-0  11927-2 0  9999
2 12674  82.9354  27.8485 0100608 338.9949 136.8648 13.74317570169388
Source of the keplerian elements: AFSPC